User: anonymous   Login
Location: Ballingbuur
(53.0000°N, 5.7667°E)
Time: 07:18:51
(UTC+00:00)
Language:

Meteor 1-27 Rocket - Orbit

View from above orbital plane
View from above orbital plane
View from above satellite
View from above satellite

Ground track
Ground track

The orbit data is extracted from the following two-line orbital elements,

1 09904U 77024B   21058.79977298  .00000038  00000-0  14955-4 0  9995
2 09904  81.2591 263.7701 0054997 120.6937 239.9668 14.06900685252627
Epoch (UTC): 27 February 2021 19:11:40
Eccentricity: 0.0054997
inclination: 81.2591°
perigee height: 830 km
apogee height: 910 km
right ascension of ascending node: 263.7701°
argument of perigee: 120.6937°
revolutions per day: 14.06900685
mean anomaly at epoch: 239.9668°
orbit number at epoch: 25262

The dashed part of the orbit path shows where the satellite is in the earth's shadow,  

DLR